Weather Roundup
Issued by NWS Chicago, IL

Home | Current Version | Previous Version | Graphics & Text | Print | Product List | Glossary On
Versions: 1 2 3 4 5 6 7 8 9 10 11 12 13 14 15 16 17 18 19 20 21 22 23 24 25 26 27 28 29 30 31 32 33 34 35 36 37 38 39 40 41 42 43 44 45 46 47 48 49 50
000
NZUS59 KLOT 212009
HRRLOT

CHICAGO AREA WEATHER ROUNDUP
NATIONAL WEATHER SERVICE CHICAGO/ROMEOVILLE IL
300 PM CDT SAT APR 21 2018

NOTE: "FAIR" INDICATES FEW OR NO CLOUDS BELOW 12,000 FEET WITH NO
SIGNIFICANT WEATHER AND/OR OBSTRUCTIONS TO VISIBILITY.

* THESE STATIONS ARE NOT UNDER NWS QUALITY CONTROL. THEY ALSO MAY NOT
  REPORT WEATHER SUCH AS PRECIPITATION OR FOG.

ILZ005-006-012>014-019>023-212100-
NORTHEAST ILLINOIS

CITY           SKY/WX    TMP DP  RH WIND       PRES   REMARKS
OHARE          CLOUDY    54  24  31 N5        30.41F
MIDWAY         CLOUDY    50  27  40 NE5       30.42F
AURORA           N/A     55  29  36 NE5       30.40F
LANSING*       PTSUNNY   50  36  58 N3        30.42F
JOLIET*        CLOUDY    55  32  41 NE3       30.41F
WAUKEGAN         N/A     53  22  29 VRB6      30.41F
DUPAGE AIRPORT CLOUDY    54  29  38 SE5       30.41F
WHEELING       PTSUNNY   52  22  30 NE6       30.43F
KANKAKEE*        N/A     59  26  28 E5        30.38F
MORRIS*        CLOUDY    57  30  35 NE7       30.39F
LEWIS AIRPORT* CLOUDY    54  33  45 NE10      30.40F
NORTHERLY ISL    N/A     42  32  67 NE3         N/A
$$

WIZ051-052-058>065-066-070>072-212100-
SOUTHEAST WISCONSIN

CITY           SKY/WX    TMP DP  RH WIND       PRES   REMARKS
MILWAUKEE      CLOUDY    53  22  29 E7        30.43S
KENOSHA*       PTSUNNY   56  24  29 E6        30.41F
RACINE*        CLOUDY    49  16  26 SE5       30.44S
BURLINGTON     CLOUDY    52  27  37 NW7       30.43S
WAUKESHA       CLOUDY    52  19  28 NW8       30.43S
WEST BEND        N/A     55  23  28 W5        30.41F
$$

INZ001>003-010>013-019-020-212100-
NORTHWEST INDIANA

CITY           SKY/WX    TMP DP  RH WIND       PRES   REMARKS
GARY*          CLOUDY    45  27  49 NE5       30.43S
MICHIGAN CITY* NOT AVBL
RENSSELAER*    NOT AVBL
VALPARAISO     CLOUDY    56  29  35 CALM      30.41F
$$

LMZ740>746-212100-
SOUTHERN LAKE MICHIGAN

STATION/POSITION TIME  SKY/WX   TEMP WIND        PRES    VSBY
                                AIR  DIR/SP/G
                 (UTC)          (F)  (DEG/KT/KT) (MB)    (MI)
HARRISON CRIB    1940            40  360/  3/  3   N/A
BURNHAM HARBOR   2000            41   40/  2/  5   N/A
CALUMET HARBOR   1942            44   20/  2/  4 1029.7F
BURNS HARBOR     1940            42   70/  5/  6 1030.8R
MICHIGAN CITY    1940            42   30/  5/  6   N/A
$$

ABBREVIATIONS USED IN REMARKS
   TC - TEMPERATURE IN CELSIUS
  WCI - WIND CHILL INDEX
   HX - HEAT INDEX
  VSB - VISIBILITY
$$




USA.gov is the U.S. government's official web portal to all federal, state and local government web resources and services.